GFSNGP_925_temp_327.txt.gz
Temp
2 3 3 2 3 3 1 2 2 4 4 4 3 3 3 2 -0 0 -0 -1 -1 -3 -3 -3 -2 -2 -2 -2 -1 -1 -1 -1 -1 -1 -1 -1 -2 -2 -3 -3 -4 -5 -5 -4
-1 3 3 2 3 3 4 3 2 3 2 3 -0 -0 1 1 0 -0 -1 -1 -2 -2 -3 -3 -2 -2 -2 -2 -2 -2 -2 -2 -2 -2 -2 -2 -2 -3 -3 -4 -5 -5 -5 -4
-3 2 2 1 1 3 3 2 2 0 2 -0 0 1 0 1 -0 -1 -1 -2 -2 -3 -3 -2 -2 -2 -2 -2 -2 -2 -2 -3 -3 -2 -3 -3 -3 -3 -4 -4 -5 -5 -5 -5
-4 1 -1 2 2 3 2 1 1 3 1 -0 -2 -3 -3 -2 -3 -2 -2 -3 -4 -4 -3 -3 -2 -2 -2 -3 -3 -3 -4 -4 -4 -4 -4 -4 -4 -4 -4 -5 -5 -5 -5 -5
-0 -1 1 3 2 2 3 1 -0 -1 -2 -3 -3 -2 -3 -3 -4 -4 -5 -5 -4 -3 -3 -3 -2 -2 -2 -4 -4 -4 -4 -4 -4 -4 -4 -4 -4 -4 -4 -5 -5 -6 -5 -6
-2 -2 1 1 2 1 2 1 -1 -1 -3 -2 -2 -3 -2 -4 -5 -6 -5 -4 -4 -4 -4 -3 -3 -3 -3 -4 -4 -4 -4 -4 -5 -5 -4 -4 -4 -5 -5 -5 -6 -6 -6 -6
1 -2 0 -0 0 0 1 1 -0 -1 -1 -4 -4 -4 -5 -6 -6 -5 -5 -5 -4 -4 -4 -4 -4 -3 -4 -4 -4 -4 -4 -5 -5 -5 -5 -5 -5 -5 -6 -6 -6 -6 -7 -7
-3 -4 -1 -0 1 0 -3 -2 -1 -3 -4 -5 -5 -6 -6 -6 -6 -6 -6 -6 -5 -5 -6 -5 -5 -4 -5 -5 -5 -5 -5 -5 -5 -6 -6 -6 -6 -6 -7 -7 -7 -7 -8 -8
-0 1 -1 -2 -2 -3 -6 -6 -4 -5 -3 -4 -5 -5 -5 -6 -7 -7 -6 -6 -6 -6 -7 -6 -6 -4 -6 -7 -6 -6 -6 -6 -6 -6 -6 -7 -7 -7 -8 -8 -8 -8 -8 -9
-2 -1 -2 -4 -4 -3 -3 -4 -3 -4 -6 -7 -7 -5 -6 -7 -7 -8 -7 -7 -7 -7 -7 -7 -7 -6 -6 -6 -6 -6 -6 -7 -7 -7 -7 -8 -8 -8 -8 -9 -9 -9 -9 -9
-4 -3 -5 -5 -6 -8 -7 -7 -4 -4 -4 -6 -7 -6 -6 -7 -8 -8 -7 -7 -7 -7 -7 -8 -7 -7 -7 -7 -7 -7 -7 -8 -8 -8 -8 -8 -9 -9 -9 -9 -9 -9 -9 -9
-4 -5 -6 -6 -8 -5 -7 -7 -7 -8 -8 -5 -6 -8 -8 -9 -8 -8 -8 -8 -8 -8 -8 -8 -8 -8 -8 -8 -8 -8 -8 -8 -9 -9 -9 -9 -9 -10 -10 -9 -9 -9 -8 -8
-6 -8 -8 -9 -7 -6 -7 -5 -6 -9 -9 -10 -6 -7 -7 -9 -7 -7 -8 -8 -8 -8 -8 -8 -8 -8 -9 -8 -9 -9 -9 -9 -9 -10 -10 -10 -10 -10 -10 -10 -10 -9 -9 -9
-9 -10 -7 -8 -7 -10 -8 -6 -6 -8 -8 -8 -7 -7 -7 -8 -7 -8 -8 -7 -7 -8 -8 -8 -9 -9 -9 -9 -9 -9 -10 -10 -10 -10 -10 -10 -11 -11 -11 -11 -11 -11 -11 -10
-8 -10 -10 -10 -8 -9 -8 -8 -8 -8 -9 -9 -8 -8 -7 -8 -8 -7 -7 -7 -8 -8 -8 -9 -9 -9 -9 -10 -10 -10 -10 -10 -11 -11 -11 -11 -11 -11 -11 -11 -11 -11 -11 -11
-8 -6 -7 -7 -8 -8 -8 -12 -12 -11 -11 -10 -8 -8 -7 -6 -6 -7 -7 -8 -8 -9 -8 -9 -9 -9 -10 -10 -10 -11 -11 -11 -11 -11 -11 -11 -12 -12 -12 -12 -11 -11 -11 -11
-10 -9 -11 -11 -10 -12 -13 -15 -14 -15 -11 -10 -8 -8 -8 -8 -9 -8 -8 -8 -8 -8 -8 -9 -9 -10 -10 -10 -11 -11 -11 -12 -12 -12 -12 -12 -12 -12 -12 -12 -12 -12 -12 -12
-14 -15 -14 -15 -15 -15 -13 -12 -11 -10 -11 -7 -8 -8 -9 -10 -10 -9 -9 -9 -9 -10 -9 -9 -9 -10 -10 -10 -11 -11 -12 -12 -12 -12 -13 -13 -13 -12 -12 -12 -12 -12 -12 -12
-10 -13 -11 -12 -12 -13 -13 -12 -10 -9 -8 -8 -9 -10 -9 -9 -9 -8 -10 -10 -11 -11 -9 -9 -10 -11 -10 -11 -11 -12 -12 -12 -13 -13 -13 -13 -13 -13 -13 -13 -12 -12 -12 -13
-11 -10 -10 -11 -10 -11 -12 -10 -9 -9 -9 -9 -9 -10 -10 -9 -9 -10 -10 -11 -9 -9 -9 -9 -10 -10 -10 -11 -12 -12 -12 -12 -12 -13 -13 -13 -13 -13 -13 -13 -13 -13 -13 -13
-12 -11 -11 -11 -11 -10 -10 -10 -10 -11 -9 -10 -11 -11 -10 -9 -10 -11 -13 -14 -9 -9 -10 -10 -10 -10 -11 -11 -12 -12 -12 -13 -13 -13 -13 -13 -13 -13 -13 -13 -13 -13 -14 -14
-12 -12 -11 -11 -11 -11 -9 -10 -10 -10 -10 -10 -11 -11 -11 -11 -11 -12 -11 -10 -9 -10 -10 -10 -10 -11 -11 -12 -12 -12 -12 -12 -12 -12 -13 -13 -13 -13 -13 -13 -14 -14 -14 -15
-11 -11 -11 -12 -12 -11 -10 -10 -10 -11 -11 -11 -11 -11 -11 -11 -10 -13 -13 -9 -10 -10 -11 -10 -10 -11 -11 -11 -11 -11 -11 -12 -12 -12 -12 -13 -13 -13 -14 -14 -14 -15 -15 -15
-12 -11 -12 -11 -12 -13 -14 -10 -11 -11 -11 -11 -10 -10 -11 -12 -11 -11 -10 -10 -9 -9 -11 -11 -11 -11 -11 -11 -11 -11 -11 -12 -12 -12 -13 -13 -14 -14 -15 -15 -15 -15 -15 -15
-12 -12 -12 -12 -13 -13 -11 -11 -11 -11 -12 -12 -11 -11 -11 -10 -10 -9 -9 -10 -10 -11 -11 -11 -11 -11 -10 -10 -11 -11 -12 -12 -13 -13 -14 -14 -14 -15 -15 -15 -15 -15 -15 -15
-12 -13 -12 -11 -11 -11 -11 -12 -12 -12 -12 -13 -12 -11 -11 -10 -10 -11 -10 -10 -10 -11 -11 -11 -11 -11 -11 -11 -11 -12 -13 -13 -14 -14 -14 -14 -15 -15 -15 -15 -15 -15 -15 -15
-13 -11 -11 -11 -11 -11 -11 -11 -12 -12 -11 -12 -12 -11 -10 -10 -10 -11 -11 -11 -11 -11 -11 -11 -11 -11 -12 -12 -13 -13 -13 -14 -14 -14 -15 -15 -15 -15 -15 -15 -16 -16 -16 -15

GFSNGP_925_temp_330.txt.gz
Temp
2 2 3 3 3 2 2 1 2 3 2 3 2 2 2 1 -0 -0 -0 -1 -1 -2 -3 -3 -3 -2 -2 -1 -1 -1 -1 -1 -1 -1 -1 -1 -2 -2 -3 -3 -3 -3 -4 -4
-2 2 2 2 3 3 3 3 0 2 2 3 1 2 1 0 -0 0 -1 -1 -2 -3 -3 -3 -3 -3 -3 -2 -2 -2 -2 -2 -2 -2 -2 -2 -3 -3 -3 -3 -4 -4 -4 -4
-4 1 0 -1 -0 2 2 3 2 1 2 0 0 1 1 -0 1 -0 -1 -2 -3 -3 -3 -3 -3 -2 -2 -2 -2 -2 -2 -3 -3 -3 -3 -3 -3 -3 -3 -4 -4 -5 -5 -5
-4 -1 -4 1 2 2 1 1 1 2 1 -1 -3 -3 -3 -1 -1 -2 -2 -3 -4 -4 -4 -3 -3 -3 -3 -3 -3 -3 -3 -3 -3 -3 -3 -3 -3 -3 -3 -4 -5 -5 -5 -5
-2 -3 1 1 1 1 1 1 -1 -0 -3 -4 -3 -3 -3 -3 -3 -4 -4 -5 -5 -4 -3 -3 -3 -3 -3 -4 -3 -4 -4 -4 -4 -3 -3 -4 -4 -4 -4 -5 -5 -5 -6 -6
-2 -3 1 1 1 1 -0 1 -1 -2 -3 -3 -2 -2 -2 -4 -5 -6 -5 -5 -5 -4 -4 -3 -4 -4 -4 -4 -4 -4 -4 -4 -4 -4 -4 -4 -4 -4 -5 -5 -5 -6 -6 -6
1 -1 0 0 -0 -0 1 -0 -0 -1 -2 -2 -2 -4 -5 -7 -6 -6 -5 -5 -5 -4 -4 -4 -4 -4 -4 -5 -4 -4 -4 -5 -5 -5 -5 -4 -5 -5 -5 -6 -6 -6 -6 -7
-3 -3 -0 -1 1 -0 -2 -2 -2 -3 -4 -5 -5 -7 -7 -6 -7 -7 -7 -6 -5 -5 -6 -5 -4 -4 -5 -5 -5 -5 -5 -5 -6 -6 -6 -6 -5 -6 -6 -6 -6 -7 -7 -7
-2 -0 -1 -2 -2 -3 -5 -6 -4 -5 -3 -4 -5 -5 -6 -7 -7 -7 -7 -7 -6 -6 -6 -6 -5 -4 -5 -6 -6 -5 -5 -6 -6 -6 -6 -6 -6 -7 -7 -7 -7 -7 -8 -8
-2 -1 -2 -4 -5 -5 -4 -4 -5 -5 -7 -7 -8 -6 -6 -7 -8 -8 -8 -7 -7 -7 -7 -7 -6 -6 -5 -6 -6 -5 -6 -6 -7 -6 -7 -7 -7 -7 -8 -8 -8 -8 -9 -9
-4 -3 -5 -5 -7 -9 -7 -7 -5 -5 -5 -8 -8 -6 -7 -8 -8 -8 -8 -7 -7 -7 -7 -7 -7 -7 -7 -7 -6 -6 -7 -7 -7 -8 -8 -8 -8 -8 -9 -9 -9 -9 -9 -9
-4 -6 -7 -7 -8 -6 -7 -7 -8 -9 -8 -5 -6 -8 -8 -8 -7 -8 -8 -7 -8 -8 -8 -8 -8 -7 -7 -7 -7 -7 -8 -8 -8 -8 -8 -9 -9 -9 -10 -9 -9 -9 -8 -8
-6 -9 -9 -9 -9 -7 -7 -7 -8 -11 -9 -11 -7 -7 -7 -9 -8 -7 -7 -8 -8 -7 -7 -8 -8 -8 -8 -8 -8 -8 -8 -8 -9 -9 -9 -9 -10 -10 -10 -10 -10 -9 -9 -8
-9 -11 -8 -8 -8 -10 -9 -8 -7 -8 -8 -8 -8 -7 -8 -8 -7 -8 -8 -7 -7 -8 -8 -8 -8 -8 -8 -8 -9 -9 -9 -9 -9 -9 -10 -10 -10 -10 -11 -11 -11 -11 -10 -10
-8 -11 -11 -11 -9 -10 -8 -8 -9 -8 -9 -9 -8 -8 -7 -8 -8 -7 -7 -7 -8 -8 -8 -8 -8 -8 -9 -9 -9 -9 -9 -10 -10 -10 -10 -11 -11 -11 -11 -11 -11 -11 -11 -11
-9 -8 -7 -8 -8 -8 -8 -12 -12 -12 -12 -11 -9 -8 -7 -6 -6 -7 -7 -8 -8 -9 -8 -8 -8 -8 -9 -9 -10 -10 -10 -10 -11 -11 -11 -11 -11 -12 -12 -12 -12 -12 -12 -11
-11 -10 -12 -11 -11 -12 -13 -15 -15 -15 -11 -11 -9 -8 -8 -8 -8 -8 -8 -8 -8 -7 -7 -8 -8 -9 -9 -9 -10 -10 -10 -11 -11 -12 -12 -12 -12 -12 -12 -12 -12 -12 -12 -12
-13 -14 -15 -15 -15 -16 -13 -12 -12 -11 -12 -8 -8 -8 -9 -10 -9 -8 -8 -9 -9 -9 -8 -8 -8 -9 -9 -10 -10 -11 -11 -11 -12 -12 -12 -12 -12 -12 -12 -12 -12 -12 -12 -12
-11 -13 -12 -13 -12 -13 -14 -13 -11 -10 -10 -9 -10 -10 -8 -8 -8 -8 -9 -10 -10 -10 -8 -8 -9 -9 -10 -10 -10 -11 -11 -12 -12 -12 -13 -13 -13 -13 -13 -13 -13 -13 -12 -12
-11 -10 -10 -11 -10 -11 -12 -10 -10 -11 -10 -10 -10 -11 -10 -9 -9 -10 -10 -10 -8 -8 -8 -8 -9 -9 -9 -10 -11 -11 -12 -12 -12 -12 -13 -13 -13 -13 -13 -13 -13 -13 -13 -13
-12 -11 -11 -11 -11 -10 -10 -10 -11 -11 -9 -11 -12 -11 -10 -9 -9 -10 -12 -13 -8 -8 -9 -9 -9 -9 -10 -10 -11 -12 -12 -12 -12 -12 -13 -13 -13 -13 -13 -13 -13 -13 -13 -13
-12 -12 -11 -11 -12 -12 -10 -10 -11 -11 -11 -11 -11 -11 -11 -11 -10 -11 -10 -10 -8 -9 -9 -9 -9 -10 -10 -11 -11 -12 -12 -12 -12 -12 -13 -13 -13 -13 -13 -13 -13 -13 -13 -14
-12 -12 -12 -13 -13 -12 -12 -11 -11 -11 -11 -11 -11 -11 -11 -11 -10 -12 -12 -9 -9 -9 -10 -9 -9 -10 -11 -11 -12 -12 -12 -12 -12 -12 -12 -12 -12 -13 -13 -13 -13 -14 -14 -14
-13 -12 -13 -12 -13 -14 -15 -11 -11 -11 -11 -11 -11 -11 -11 -12 -11 -10 -9 -10 -9 -9 -10 -9 -10 -11 -10 -11 -11 -11 -11 -11 -11 -12 -12 -12 -12 -13 -13 -14 -14 -14 -15 -15
-13 -13 -13 -13 -13 -13 -12 -11 -12 -11 -11 -12 -12 -11 -11 -11 -11 -10 -9 -9 -10 -10 -10 -11 -10 -10 -10 -10 -11 -11 -11 -11 -11 -12 -12 -13 -13 -14 -14 -14 -15 -15 -15 -15
-13 -13 -12 -12 -12 -12 -12 -12 -13 -12 -12 -12 -12 -12 -11 -11 -11 -11 -11 -10 -10 -10 -11 -10 -10 -10 -10 -10 -11 -11 -11 -11 -12 -13 -13 -14 -14 -14 -14 -15 -15 -15 -15 -15
-13 -12 -12 -12 -12 -12 -12 -11 -11 -12 -11 -11 -12 -11 -11 -11 -11 -11 -11 -11 -11 -10 -10 -11 -11 -11 -11 -11 -11 -11 -12 -12 -13 -13 -14 -14 -14 -14 -15 -15 -15 -15 -16 -16

GFSNGP_925_temp_333.txt.gz
Temp
1 1 2 3 3 2 2 1 1 2 2 3 3 3 2 0 0 -0 -1 -1 -1 -2 -2 -3 -2 -2 -1 -1 -1 -0 -1 -1 -1 -1 -1 -1 -2 -2 -2 -2 -2 -2 -3 -3
-1 1 2 1 3 2 3 3 0 3 3 3 2 2 1 -0 0 0 0 -1 -1 -2 -3 -3 -3 -2 -2 -2 -1 -1 -1 -1 -2 -2 -2 -2 -2 -3 -3 -3 -3 -3 -4 -3
-4 -0 -1 -1 -0 2 2 3 2 3 3 1 2 2 1 -0 0 -0 -1 -1 -2 -2 -3 -3 -3 -2 -2 -2 -2 -2 -2 -2 -2 -3 -3 -3 -3 -3 -3 -3 -4 -4 -4 -4
-4 -2 -4 1 1 1 2 1 0 2 1 -0 -1 -2 -1 -1 -0 -1 -2 -2 -3 -3 -3 -3 -3 -3 -3 -3 -3 -3 -3 -3 -3 -3 -3 -3 -3 -3 -3 -4 -4 -5 -5 -5
-2 -2 0 1 1 0 -0 0 -1 -0 -2 -3 -3 -2 -3 -3 -2 -3 -3 -4 -4 -3 -3 -3 -3 -3 -3 -3 -3 -3 -4 -3 -3 -3 -3 -4 -4 -4 -4 -4 -5 -5 -5 -5
-2 -2 1 1 1 0 -1 1 -1 -1 -3 -3 -2 -0 -1 -4 -4 -5 -5 -4 -5 -4 -4 -3 -4 -3 -3 -4 -4 -4 -4 -4 -4 -4 -3 -4 -4 -4 -4 -5 -5 -5 -6 -6
0 -2 -0 0 -1 -1 0 1 -1 -2 -2 -3 -2 -3 -4 -6 -6 -6 -6 -5 -5 -4 -4 -4 -4 -4 -4 -4 -4 -4 -4 -4 -4 -4 -4 -4 -4 -4 -5 -6 -6 -6 -6 -6
-3 -3 -1 -1 -0 0 -2 -2 -3 -3 -4 -4 -6 -6 -6 -6 -6 -7 -7 -6 -5 -5 -5 -5 -4 -4 -5 -5 -5 -5 -5 -5 -5 -5 -5 -5 -5 -6 -6 -6 -6 -7 -7 -7
-3 -1 -2 -3 -3 -3 -4 -4 -3 -4 -4 -4 -5 -5 -5 -6 -7 -7 -6 -6 -6 -5 -6 -6 -5 -4 -5 -5 -5 -5 -5 -5 -6 -6 -6 -6 -6 -6 -6 -7 -7 -7 -7 -8
-2 -2 -4 -5 -6 -5 -4 -5 -5 -5 -7 -7 -7 -6 -6 -7 -8 -8 -7 -7 -7 -7 -7 -7 -6 -6 -5 -5 -6 -5 -6 -6 -6 -6 -7 -7 -6 -6 -7 -7 -7 -7 -8 -8
-5 -4 -6 -6 -7 -8 -7 -8 -6 -6 -5 -8 -9 -6 -7 -8 -8 -8 -7 -7 -7 -7 -7 -7 -7 -6 -6 -6 -6 -6 -6 -7 -7 -7 -7 -7 -7 -7 -7 -8 -8 -8 -8 -8
-6 -6 -8 -7 -9 -7 -8 -8 -9 -9 -8 -6 -7 -8 -8 -8 -7 -7 -7 -7 -7 -7 -7 -7 -7 -7 -7 -7 -7 -6 -7 -7 -8 -8 -8 -8 -8 -8 -9 -9 -9 -9 -9 -8
-8 -8 -9 -9 -10 -7 -8 -8 -8 -11 -10 -11 -7 -7 -7 -8 -7 -7 -7 -7 -7 -7 -7 -7 -7 -7 -7 -7 -7 -7 -7 -8 -8 -8 -9 -9 -9 -9 -9 -10 -9 -9 -8 -8
-10 -11 -8 -9 -8 -10 -9 -8 -8 -8 -8 -9 -9 -8 -7 -7 -7 -7 -8 -6 -7 -7 -7 -8 -8 -7 -8 -8 -8 -8 -8 -8 -9 -9 -9 -9 -10 -10 -10 -10 -10 -10 -10 -10
-10 -11 -11 -11 -10 -10 -9 -9 -10 -9 -9 -9 -9 -8 -8 -8 -8 -7 -7 -7 -7 -8 -8 -8 -8 -8 -8 -8 -8 -8 -9 -9 -9 -10 -10 -10 -10 -10 -11 -11 -11 -11 -11 -11
-10 -9 -8 -9 -9 -9 -9 -12 -13 -12 -11 -10 -9 -8 -8 -8 -7 -7 -7 -7 -8 -9 -8 -8 -8 -8 -8 -9 -9 -9 -9 -9 -10 -10 -10 -11 -11 -11 -11 -12 -12 -12 -12 -11
-11 -9 -12 -12 -11 -13 -13 -15 -15 -14 -12 -11 -9 -8 -8 -8 -8 -8 -8 -8 -7 -7 -7 -7 -7 -8 -8 -9 -9 -9 -9 -10 -11 -11 -11 -11 -11 -11 -11 -12 -12 -12 -12 -12
-13 -14 -14 -14 -15 -16 -13 -12 -12 -12 -12 -9 -9 -9 -9 -9 -9 -7 -7 -8 -8 -8 -8 -7 -8 -8 -9 -9 -9 -10 -10 -10 -11 -11 -11 -12 -12 -12 -12 -12 -12 -12 -12 -12
-12 -13 -11 -13 -12 -13 -13 -13 -11 -10 -10 -10 -11 -10 -9 -8 -8 -7 -8 -9 -9 -9 -7 -8 -8 -8 -9 -9 -10 -10 -10 -11 -11 -11 -12 -12 -13 -13 -13 -13 -13 -13 -13 -13
-11 -11 -11 -11 -11 -12 -12 -10 -11 -11 -10 -11 -11 -12 -11 -9 -9 -9 -9 -9 -8 -7 -7 -7 -8 -9 -8 -9 -11 -10 -11 -11 -12 -12 -12 -13 -13 -13 -13 -13 -13 -13 -13 -13
-11 -11 -11 -11 -11 -11 -11 -11 -11 -11 -10 -11 -12 -12 -11 -9 -10 -10 -12 -13 -7 -8 -8 -8 -8 -8 -9 -9 -10 -11 -11 -12 -12 -12 -12 -13 -13 -13 -13 -13 -13 -13 -13 -13
-12 -13 -12 -12 -13 -13 -11 -12 -12 -12 -11 -11 -12 -12 -12 -12 -11 -11 -10 -10 -8 -8 -8 -8 -8 -9 -9 -10 -11 -11 -11 -12 -12 -12 -12 -13 -13 -13 -13 -13 -13 -13 -13 -13
-12 -13 -13 -13 -13 -13 -12 -11 -11 -12 -12 -11 -12 -11 -12 -11 -11 -12 -12 -8 -8 -9 -10 -9 -8 -9 -10 -11 -11 -11 -11 -12 -12 -12 -12 -12 -12 -12 -12 -12 -13 -13 -13 -13
-13 -13 -13 -13 -13 -14 -15 -11 -12 -11 -12 -11 -11 -11 -12 -12 -11 -11 -10 -10 -9 -9 -9 -9 -10 -10 -10 -10 -11 -11 -11 -12 -12 -12 -11 -12 -12 -12 -12 -13 -13 -13 -14 -14
-13 -13 -13 -13 -14 -13 -13 -12 -12 -11 -11 -11 -11 -11 -11 -12 -12 -10 -10 -10 -10 -10 -10 -10 -10 -10 -9 -10 -10 -11 -11 -11 -11 -11 -11 -12 -12 -12 -13 -13 -14 -14 -14 -15
-13 -13 -13 -13 -13 -13 -13 -12 -12 -12 -12 -12 -11 -11 -11 -11 -11 -11 -11 -11 -10 -10 -10 -10 -10 -10 -10 -10 -10 -10 -11 -11 -11 -11 -11 -12 -12 -13 -13 -14 -14 -14 -15 -15
-14 -12 -12 -13 -13 -13 -13 -11 -12 -13 -12 -12 -12 -11 -11 -11 -11 -11 -11 -11 -11 -10 -10 -10 -11 -11 -10 -10 -11 -11 -11 -11 -11 -12 -12 -13 -13 -13 -14 -14 -14 -15 -15 -15

GFSNGP_925_temp_336.txt.gz
Temp
3 3 4 3 4 3 4 4 6 5 6 4 4 3 3 2 1 1 1 0 0 -0 -1 -1 -1 -1 -1 -2 -2 -2 -2 -2 -2 -1 -1 -1 -2 -2 -2 -2 -2 -2 -2 -2
2 3 3 3 3 4 3 4 4 5 4 6 4 3 2 2 1 1 0 -0 -1 -1 -1 -0 -1 -1 -2 -2 -2 -2 -1 -2 -3 -3 -2 -2 -2 -2 -3 -3 -3 -2 -3 -3
2 2 3 3 2 2 3 3 3 4 4 4 3 3 2 2 1 0 -0 -0 -0 -0 -1 -1 -1 -1 -1 -2 -2 -2 -2 -3 -3 -3 -3 -3 -3 -3 -3 -3 -3 -3 -3 -3
2 3 2 2 3 3 3 1 2 3 2 2 2 0 1 1 1 1 1 1 0 -0 -1 -2 -2 -2 -3 -3 -2 -2 -3 -3 -3 -3 -3 -4 -4 -4 -3 -3 -4 -4 -4 -4
2 2 2 2 2 2 2 2 1 2 -0 -1 -1 0 -1 -0 3 2 1 1 -0 -1 -2 -2 -2 -3 -3 -3 -3 -3 -3 -4 -4 -4 -4 -4 -4 -5 -4 -4 -4 -4 -4 -4
2 2 2 1 1 1 1 3 1 1 -0 -0 -0 4 2 -1 0 -0 -1 -2 -2 -2 -2 -2 -3 -3 -3 -3 -3 -3 -4 -4 -4 -4 -4 -4 -4 -5 -5 -4 -5 -5 -5 -5
2 2 2 -0 -1 1 3 1 0 0 0 0 2 1 1 -1 -2 -2 -2 -3 -4 -3 -2 -3 -4 -3 -3 -3 -3 -4 -4 -4 -4 -4 -4 -4 -5 -5 -5 -5 -6 -6 -6 -5
2 1 1 -1 1 1 -1 -1 -1 -1 -2 -2 -2 -2 -1 -2 -3 -3 -3 -3 -4 -3 -4 -5 -4 -4 -4 -4 -5 -4 -5 -4 -5 -5 -5 -5 -5 -6 -6 -6 -6 -7 -7 -7
-0 1 -1 -2 -2 -2 -3 -2 -3 -3 -2 -2 -2 -2 -2 -2 -2 -3 -3 -4 -4 -4 -5 -5 -5 -4 -4 -5 -5 -5 -5 -6 -6 -6 -6 -5 -6 -6 -6 -7 -7 -7 -7 -7
-0 -1 -2 -3 -3 -3 -4 -3 -3 -3 -3 -3 -2 -2 -2 -3 -3 -4 -4 -5 -6 -5 -5 -6 -6 -5 -5 -5 -5 -5 -6 -7 -7 -7 -7 -7 -7 -7 -7 -7 -7 -7 -7 -7
-2 -2 -3 -3 -4 -5 -4 -4 -3 -3 -3 -4 -3 -2 -2 -3 -3 -4 -5 -6 -6 -6 -6 -7 -7 -6 -5 -5 -5 -6 -7 -7 -7 -6 -7 -7 -7 -7 -7 -7 -7 -7 -7 -7
-0 -4 -4 -3 -5 -5 -5 -5 -5 -5 -5 -4 -4 -3 -4 -3 -4 -5 -7 -6 -6 -6 -7 -8 -7 -7 -6 -6 -6 -6 -7 -7 -7 -7 -8 -8 -8 -8 -7 -7 -7 -7 -7 -8
-3 -5 -5 -5 -5 -6 -6 -5 -6 -7 -6 -7 -6 -5 -5 -5 -5 -6 -6 -7 -7 -7 -7 -7 -7 -7 -7 -6 -6 -6 -7 -7 -8 -8 -8 -8 -8 -8 -8 -9 -8 -8 -8 -7
-6 -7 -5 -6 -5 -7 -7 -7 -7 -7 -7 -7 -8 -8 -7 -6 -6 -6 -7 -7 -6 -7 -7 -7 -7 -7 -7 -7 -7 -7 -7 -7 -8 -9 -9 -9 -9 -9 -8 -8 -8 -9 -9 -9
-6 -7 -6 -7 -7 -7 -8 -7 -7 -6 -6 -6 -8 -8 -8 -6 -6 -6 -7 -6 -7 -7 -7 -7 -7 -7 -7 -7 -7 -8 -8 -8 -9 -9 -9 -10 -10 -10 -10 -10 -9 -9 -10 -10
-6 -6 -6 -7 -6 -6 -7 -7 -8 -7 -7 -8 -7 -7 -8 -8 -8 -7 -7 -7 -8 -9 -7 -7 -7 -7 -7 -8 -8 -8 -9 -9 -9 -10 -10 -10 -10 -10 -10 -10 -10 -10 -10 -10
-7 -5 -7 -6 -6 -7 -8 -9 -11 -10 -10 -9 -9 -9 -9 -9 -9 -8 -8 -8 -7 -7 -6 -7 -6 -7 -7 -8 -8 -9 -9 -10 -10 -11 -11 -10 -10 -10 -10 -10 -11 -11 -11 -11
-9 -9 -9 -9 -9 -10 -9 -9 -10 -10 -11 -10 -10 -10 -10 -10 -8 -7 -7 -7 -8 -8 -8 -7 -7 -7 -8 -8 -8 -9 -9 -10 -10 -10 -11 -11 -11 -11 -11 -11 -11 -11 -11 -11
-10 -10 -10 -11 -11 -12 -12 -11 -11 -11 -11 -11 -12 -11 -10 -10 -9 -8 -8 -9 -10 -10 -7 -7 -7 -8 -8 -8 -9 -9 -10 -10 -10 -11 -11 -12 -11 -11 -12 -12 -12 -12 -12 -12
-9 -10 -10 -10 -11 -12 -11 -11 -11 -11 -11 -11 -12 -12 -12 -10 -9 -10 -10 -10 -8 -7 -7 -6 -7 -8 -8 -8 -10 -9 -10 -10 -11 -11 -12 -12 -13 -12 -12 -12 -12 -12 -12 -12
-9 -10 -10 -11 -11 -11 -12 -12 -12 -12 -11 -12 -12 -12 -12 -10 -10 -10 -12 -12 -8 -7 -7 -8 -8 -8 -8 -8 -10 -10 -10 -11 -11 -12 -12 -13 -13 -13 -14 -13 -13 -13 -13 -13
-12 -13 -12 -13 -13 -13 -12 -12 -13 -13 -13 -12 -12 -12 -13 -12 -12 -11 -11 -10 -9 -8 -8 -8 -8 -8 -8 -9 -10 -11 -11 -11 -11 -12 -12 -13 -13 -13 -13 -13 -14 -13 -13 -13
-13 -14 -14 -14 -14 -14 -13 -12 -12 -13 -13 -12 -12 -12 -13 -12 -11 -11 -10 -9 -9 -9 -10 -8 -8 -8 -10 -10 -11 -11 -12 -12 -12 -12 -13 -12 -13 -13 -13 -13 -13 -13 -13 -14
-14 -14 -14 -14 -14 -14 -14 -12 -12 -12 -12 -12 -12 -12 -12 -13 -12 -11 -11 -10 -10 -9 -9 -9 -9 -10 -9 -10 -11 -11 -11 -12 -12 -12 -12 -13 -12 -12 -12 -12 -12 -13 -14 -13
-14 -14 -14 -14 -14 -12 -13 -12 -12 -12 -12 -12 -12 -11 -11 -12 -12 -11 -11 -10 -10 -10 -10 -9 -10 -10 -9 -9 -11 -11 -11 -11 -11 -11 -12 -12 -12 -12 -12 -12 -12 -12 -13 -13
-14 -13 -13 -13 -13 -13 -13 -13 -12 -12 -12 -12 -12 -11 -11 -11 -11 -12 -11 -11 -11 -10 -10 -10 -10 -9 -9 -10 -10 -10 -10 -10 -11 -11 -12 -12 -12 -12 -12 -12 -12 -13 -13 -14
-14 -12 -13 -13 -13 -14 -14 -12 -12 -12 -13 -13 -12 -11 -11 -11 -11 -11 -11 -11 -11 -11 -10 -10 -10 -10 -10 -10 -10 -10 -10 -10 -10 -11 -11 -12 -11 -12 -12 -12 -13 -13 -14 -14